Location: New Town
(33.2710°N, 90.7534°W)
Time: 02:31:33
(UTC+00:00)

ISS - Pass Details

Date: 26 April 2021
Orbit: 417 x 422 km, 51.6° (Epoch: 18 May)

Event Time Altitude Azimuth Distance (km) Brightness Sun altitude
Exits shadow 09:58:09 42° 261° (W) 604 -3.4 -16.6°
Maximum altitude 09:59:00 60° 318° (NW) 484 -3.6 -16.4°
Drops below altitude 10° 10:02:21 10° 39° (NE) 1,502 0.1 -15.8°
Sets 10:04:28 0° 43° (NE) 2,370 1.5 -15.4°
